#timestamp,LO_Frequency,Hit,StdDev 
1562126415.7,286047022.2,P
1562126435.5,286047030.9,P
1562126455.3,286047037.5,P
1562126475.2,286047040.0,Y
1562126495.0,286047024.7,P
1562126495.9,286047024.7,P
1562126515.8,286047030.2,P
1562126535.6,286047039.5,Y
1562126555.4,286047018.5,P
1562126575.3,286047025.0,P
1562126595.1,286047028.3,P
1562126615.9,286047032.2,Y
1562126635.7,286047011.0,P
1562126655.5,286047015.0,N
1562126675.4,286047017.6,P
1562126695.2,286047019.9,Y
1562126715.1,286047003.1,P
1562126716.0,286047003.1,N
1562126735.8,286047005.8,N
1562126755.6,286047004.5,N
1562126775.5,286047007.5,N
1562126795.3,286047006.8,N
1562126815.1,286047007.8,N
1562126835.9,286047008.9,N
1562126855.7,286047009.1,N
1562126875.6,286047008.7,N
1562126895.4,286047010.8,N
1562126915.2,286047014.6,Y
1562126935.1,286047011.8,P
1562126936.0,286047011.8,P
1562126955.8,286047013.4,P
1562126975.6,286047009.4,Y
1562126995.5,286047004.0,P
1562127015.3,286047005.9,N
1562127035.2,286047003.3,N
1562127055.9,286047000.5,N
1562127075.7,286046998.8,N
1562127095.6,286046997.3,N
1562127115.4,286046993.5,N
1562127135.2,286046989.1,N
1562127155.1,286046988.5,N
1562127156.0,286046988.5,N
1562127175.8,286046990.6,N
1562127195.7,286046987.6,N
1562127215.5,286046986.8,N
1562127235.3,286046982.9,N
1562127255.2,286046981.1,N
1562127275.0,286046979.8,N
1562127275.9,286046979.8,N
1562127295.7,286046982.7,N
1562127315.6,286046985.6,N
1562127335.4,286046984.9,N
1562127355.3,286046982.4,N
1562127375.1,286046983.9,N
1562127376.0,286046983.9,N
1562127395.8,286046987.8,N
1562127415.7,286046989.8,N
1562127435.5,286046989.6,N
1562127455.4,286046988.4,N
1562127475.2,286046985.3,N
1562127495.0,286046984.0,N
1562127495.9,286046984.0,N
1562127515.8,286046987.2,N
1562127535.6,286046992.3,N
1562127555.4,286046996.4,N
1562127575.3,286046996.0,N
1562127595.1,286046996.9,N
1562127615.9,286046993.3,N
1562127635.7,286046992.8,N
1562127655.5,286046993.2,N
1562127675.4,286046988.9,N
1562127695.2,286046989.7,N
1562127715.0,286046991.5,N
1562127715.9,286046991.5,N
1562127735.8,286046994.1,N
1562127755.6,286046999.5,N
1562127775.5,286046998.3,N
1562127795.3,286047000.8,N
1562127815.1,286046994.9,N
1562127835.9,286046993.6,N
1562127855.7,286046994.7,N
1562127875.5,286046991.5,N
1562127895.4,286046982.9,Y
1562127915.2,286046987.9,P
1562127935.1,286046982.7,P
1562127936.0,286046982.7,P
1562127955.8,286046980.0,Y
1562127975.7,286046993.4,P
1562127995.5,286046993.0,N
1562128015.3,286046990.0,P
1562128035.2,286046987.3,Y
1562128055.0,286046999.3,P
1562128055.9,286046999.3,N
1562128075.7,286047000.1,N
1562128095.6,286046999.8,N
1562128115.4,286047004.1,N
1562128135.3,286047004.4,N
1562128155.1,286047003.1,N
1562128175.8,286047004.6,N
1562128195.7,286047006.5,N
1562128215.5,286047005.2,N
1562128235.4,286047002.8,N
1562128255.2,286047000.8,N
1562128275.0,286047003.2,N
1562128275.9,286047003.2,N
1562128295.8,286047006.4,N
1562128315.9,286047011.4,Y
1562128335.7,286047013.1,P
1562128355.5,286047018.4,P
1562128375.4,286047016.6,N
1562128395.2,286047017.5,N
1562128415.0,286047014.3,N
1562128416.0,286047014.3,N
1562128465.8,286047017.2,E
1562128475.7,286047010.3,N
1562128495.6,286047000.3,P
1562128515.4,286046998.7,N
1562128535.3,286046998.6,N
1562128555.1,286047000.7,N
1562128556.0,286047000.7,N
1562128575.8,286047000.4,N
1562128595.7,286047002.8,N
1562128615.5,286047002.6,N
1562128635.3,286047003.3,N
1562128655.2,286047001.6,N
1562128675.0,286046999.9,N
1562128675.9,286046999.9,N
1562128695.8,286047000.3,N
1562128715.6,286046997.6,N
1562128735.4,286046998.8,N
1562128755.3,286046999.5,N
1562128775.1,286046996.9,N
1562128795.8,286046998.9,N
1562128815.7,286046997.3,N
1562128835.5,286046995.6,N
1562128855.4,286046995.1,N
1562128875.2,286046995.7,N
1562128895.0,286046995.4,N
1562128895.9,286046995.4,N
1562128915.8,286046997.2,N
1562128935.6,286046999.3,N
1562128955.5,286047002.4,N
1562128975.3,286047006.9,N
1562128995.1,286047011.7,Y
1562129015.9,286047019.5,P
1562129035.7,286047029.9,P
1562129055.5,286047032.8,N
1562129075.4,286047031.9,N
1562129095.2,286047035.0,N
1562129115.1,286047039.6,Y
1562129116.0,286047039.6,P
1562129135.8,286047014.7,N
1562129155.6,286047017.8,N
1562129175.5,286047019.3,N
1562129195.3,286047024.0,N
1562129215.2,286047025.3,Y
1562129235.9,286047004.5,P
1562129255.7,286047005.5,N
1562129275.6,286047005.8,N
1562129295.4,286047002.1,N
1562129315.2,286046998.5,N
1562129335.1,286046996.7,N
1562129336.0,286046996.7,N
1562129355.8,286046996.4,N
1562129375.7,286046995.6,N
1562129395.5,286046994.2,N
1562129415.3,286046993.7,N
1562129435.2,286046989.8,N
1562129455.0,286046985.9,N
1562129455.9,286046985.9,N
1562129475.7,286046980.5,N
1562129495.6,286046976.0,N
1562129515.4,286046975.6,N
1562129535.3,286046972.4,N
1562129555.1,286046966.6,N
1562129556.0,286046966.6,N
1562129575.8,286046966.0,N
1562129595.7,286046963.3,N
1562129615.5,286046959.9,N
1562129635.3,286046956.6,N
1562129655.2,286046956.1,N
1562129675.0,286046954.2,N
1562129675.9,286046954.2,N
1562129695.8,286046953.7,N
1562129715.6,286046950.8,N
1562129735.4,286046944.7,N
1562129755.3,286046936.4,Y
1562129775.1,286046953.9,P
1562129795.9,286046954.4,P
1562129815.7,286046956.0,P
1562129835.5,286046957.4,Y
1562129855.4,286047001.0,P
1562129875.2,286046997.7,N
1562129895.0,286046997.8,N
1562129895.9,286046997.8,N
1562129915.8,286046996.1,N
1562129935.6,286046993.1,N
1562129955.5,286046992.5,N
1562129975.3,286046991.6,N
1562129995.1,286046988.0,N
